Regional Weather Roundup
Issued by NWS

Home | Current Version | Previous Version | Graphics & Text | Print | Product List | Glossary On
Versions: 1 2 3 4 5 6 7 8 9 10 11 12 13 14 15 16 17 18 19 20 21 22 23 24 25 26 27 28 29 30 31 32 33 34 35 36 37 38 39 40 41 42 43 44 45 46 47 48 49 50
007
ASUS45 KBOU 232007
RWRCO

WEATHER ROUNDUP FOR COLORADO
NATIONAL WEATHER SERVICE DENVER/BOULDER CO
200 PM MDT SUN JUL 23 2017

NOTE: "FAIR" INDICATES FEW OR NO CLOUDS BELOW 12000 FEET WITH NO
SIGNIFICANT WEATHER AND/OR OBSTRUCTIONS TO VISIBILITY.

COZ001>005-013-030-031-232100-
...NORTHWEST COLORADO...

CITY           SKY/WX    TMP DP  RH WIND       PRES   REMARKS
CRAIG          FAIR      89  28  11 VRB3      30.20F
HAYDEN         FAIR      84  28  13 N5        30.23F
MEEKER         FAIR      88  26  10 MISG      30.20F
RABBIT EARS PA MOCLDY    64  36  34 CALM      30.57F
STEAMBOAT SPGS FAIR      86  33  15 S3        30.24F
WALDEN         FAIR      79  27  14 W8        30.37F
$$

COZ006>008-011-232100-
...WEST CENTRAL VALLEYS...

CITY           SKY/WX    TMP DP  RH WIND       PRES   REMARKS
GRAND JUNCTION FAIR      93  40  15 S8        30.08F
MONTROSE       FAIR      87  43  21 VRB5      30.16F
EAGLE          SUNNY     84  37  18 CALM      30.24F
RIFLE          FAIR      91  33  12 NW7       30.13F
DELTA          FAIR      94  37  13 S8        30.12F
NUCLA          FAIR      88  39  18 N7        30.21F
$$

COZ017>023-064>068-232100-
...SOUTHWEST COLORADO...

CITY           SKY/WX    TMP DP  RH WIND       PRES   REMARKS
DURANGO        FAIR      81  45  28 VRB3      30.25F
CORTEZ         FAIR      85  48  27 SW6       30.17F
PAGOSA SPRINGS FAIR      77  40  25 S8        30.34F
TELLURIDE      LGT RAIN  63  50  63 CALM      30.48R
WOLF CREEK PAS NOT AVBL
$$

COZ009-010-012-014-032>034-037-058>063-232100-
...CENTRAL COLORADO...

CITY           SKY/WX    TMP DP  RH WIND       PRES   REMARKS
ASPEN          FAIR      82  33  17 CALM      30.30F
BUENA VISTA    FAIR      79  39  23 E12       30.36F
COPPER MTN     PTSUNNY   64  34  32 E13G20    30.69S
BERTHOUD PASS  PTSUNNY   50  36  57 MISG      30.74S
COTTONWOOD PAS FAIR      75  34  22 E8G17     30.51F
GUNNISON       NOT AVBL
KREMMLING      FAIR      88  18   7 S5        30.30F
LEADVILLE      FAIR      71  26  18 S12       30.48F
MONARCH PASS   FAIR      59  41  51 S9        30.79F
SALIDA         FAIR      83  36  18 SE13G20   30.39F
SUNLIGHT       PTSUNNY   63  36  36 CALM      30.61F
WILKERSON PASS CLOUDY    61  36  39 SW5       30.67F
$$

COZ069>075-232100-
...SAN LUIS VALLEY/SANGRE DE CRISTO MOUNTAINS...

CITY           SKY/WX    TMP DP  RH WIND       PRES   REMARKS
ALAMOSA        FAIR      77  45  32 SE5       30.33F
DEL NORTE      FAIR      77  43  30 E7        30.38F
LA VETA PASS   NOT AVBL
SAGUACHE         N/A    N/A N/A N/A MISG        N/A
$$

COZ035-036-038>040-232100-
...NORTHERN COLORADO FRONT RANGE...

CITY           SKY/WX    TMP DP  RH WIND       PRES   REMARKS
DENVER INTL AP PTSUNNY   89  45  21 E10       30.17F
DMNS CITY PARK   N/A     89  42  19 N1        30.15F
AURORA         PTSUNNY   86  47  25 SE3       30.20F
FRONT RANGE AP CLOUDY    91  45  19 E7        30.20S
ERIE MUNI ARPT FAIR      91  40  17 S9        30.15F
BOULDER MUN AP FAIR      88  48  25 SE5       30.17F
CENTENNIAL     PTSUNNY   86  39  19 VRB5      30.21S
BROOMFIELD     FAIR      86  41  20 E5        30.21S
FORT COLLINS   FAIR      85  52  32 S9        30.16
LONGMONT       FAIR      93  48  21 SE3       30.17F
$$

COZ041-046-047-076>085-087-088-232100-
...PIKES PEAK/PALMER DIVIDE AND SOUTHERN FOOTHILLS...

CITY           SKY/WX    TMP DP  RH WIND       PRES   REMARKS
COLO. SPRINGS  PTSUNNY   85  45  24 SE9G22    30.26F
A. F. ACADEMY  FAIR      82  45  27 SE10      30.26F
SCHRIEVER AFB  FAIR      82  41  22 SE7       30.26F
CHEYENNE MTN   FAIR      80  46  30 SE12      30.26F
ELLICOTT       FAIR     N/A N/A N/A S15       30.24F
FALCON           N/A     82  41  23 SE7G16    30.32F
FORT CARSON    FAIR      84  51  31 SW3       30.22F
LIMON          FAIR      86  46  24 E12       30.20F
MONUMENT HILL  FAIR      79  48  34 S13G18    30.33F
CANON CITY     SUNNY     90  50  25 E6        30.18F
WALSENBURG     FAIR      90  46  22 CALM      30.23F
TRINIDAD       PTSUNNY   87  46  24 E9G20     30.21F
$$

COZ042>045-048>051-090-091-232100-
...NORTHEAST COLORADO...

CITY           SKY/WX    TMP DP  RH WIND       PRES   REMARKS
GREELEY ARPT   FAIR      91  49  23 E5        30.14F
AKRON          FAIR      90  43  19 SE10      30.15F
BURLINGTON     FAIR      90  51  26 E15G24    30.15S
WRAY           NOT AVBL
YUMA           FAIR      88  32  13 S7        30.12F
STERLING       FAIR      93  50  22 S7        30.08F
HOLYOKE        FAIR      95  43  16 S10       30.10F
FORT MORGAN    FAIR      94  44  17 E8        30.13F
$$

COZ086-089-092>099-232100-
...SOUTHEAST COLORADO...

CITY           SKY/WX    TMP DP  RH WIND       PRES   REMARKS
PUEBLO         FAIR      93  47  20 S14       30.13F
LA JUNTA       FAIR      92  50  23 NE6       30.11F
LAMAR          FAIR      90  58  33 E14G20    30.07F
SPRINGFIELD      N/A     86  53  32 NE14      30.12F
$$




USA.gov is the U.S. government's official web portal to all federal, state and local government web resources and services.